Change the Weather History Date:

Tuesday, January 7, 2014

  Actual Average (KUIN) Record (KUIN)
Temperature  
Mean Temperature 6 °F 26 °F  
Max Temperature 19 °F 34 °F 70 °F (1907)
Min Temperature -8 °F 19 °F -19 °F (1912)
Degree Days  
Heating Degree Days 60 39  
Month to date heating degree days 269  
Since 1 July heating degree days 2460  
Cooling Degree Days 0 0  
Month to date cooling degree days 0  
Year to date cooling degree days 0  
Moisture  
Dew Point -4 °F    
Average Humidity 66    
Maximum Humidity 80    
Minimum Humidity 50    
Precipitation  
Precipitation 0.00 in 0.05 in 1.38 in (2008)
Month to date precipitation 0.38  
Year to date precipitation 0.38  
Sea Level Pressure  
Sea Level Pressure 30.29 in    
Wind  
Wind Speed 6 mph (South)    
Max Wind Speed 13 mph    
Max Gust Speed 18 mph    
Visibility 10 miles    
Events      
T = Trace of Precipitation, MM = Missing Value Source: NWS Daily Summary

Daily Weather History Graph

Daily Weather History Graph

Search for Another Location

Airport or City:

Trip Planner

Search our weather history database for the weather conditions in past years. The results will help you decide how hot, cold, wet, or windy it might be!

Date:

Astronomy

Jan. 07, 2014 Rise Set
Actual Time 7:24 AM CST 4:55 PM CST
Civil Twilight 6:54 AM CST 5:25 PM CST
Nautical Twilight 6:20 AM CST 5:58 PM CST
Astronomical Twilight 5:47 AM CST 6:31 PM CST
Moon 11:14 AM CST (1/7) No Moon Set
Length of Visible Light 10h 31m
Length of Day
9h 31m
Waxing Crescent, 46% of the Moon is Illuminated
Jan 7
Waxing Crescent
Jan 7
First Quarter
Jan 15
Full
Jan 23
Last Quarter
Jan 30
New

Hourly Weather History & Observations

Time (CST) Temp. Windchill Dew Point Humidity Pressure Visibility Wind Dir Wind Speed Gust Speed Precip Events Conditions
12:15 AM -5.8 °F -18.4 °F -14.8 °F 65% 30.41 in 10.0 mi WSW 5.8 mph - N/A   Clear
12:35 AM -6.0 °F -20.1 °F -14.8 °F 66% 30.41 in 10.0 mi SW 6.9 mph - N/A   Clear
12:55 AM -5.8 °F -21.2 °F -14.4 °F 66% 30.40 in 10.0 mi SW 8.1 mph - N/A   Scattered Clouds
1:15 AM -4.9 °F -18.8 °F -14.1 °F 65% 30.40 in 10.0 mi SW 6.9 mph - N/A   Scattered Clouds
1:35 AM -5.3 °F -16.0 °F -14.1 °F 66% 30.41 in 10.0 mi SW 4.6 mph - N/A   Clear
1:55 AM -5.6 °F -18.2 °F -13.9 °F 67% 30.40 in 10.0 mi SW 5.8 mph - N/A   Scattered Clouds
2:15 AM -5.1 °F -20.4 °F -13.9 °F 66% 30.41 in 10.0 mi SW 8.1 mph - N/A   Scattered Clouds
2:35 AM -4.9 °F -20.1 °F -13.9 °F 65% 30.40 in 10.0 mi SW 8.1 mph - N/A   Scattered Clouds
2:55 AM -4.9 °F -20.1 °F -13.5 °F 66% 30.41 in 10.0 mi SW 8.1 mph - N/A   Scattered Clouds
3:15 AM -5.3 °F -19.3 °F -13.7 °F 67% 30.40 in 10.0 mi SW 6.9 mph - N/A   Scattered Clouds
3:35 AM -5.3 °F -19.3 °F -13.5 °F 67% 30.40 in 10.0 mi SW 6.9 mph - N/A   Scattered Clouds
3:55 AM -4.9 °F -20.1 °F -13.2 °F 68% 30.38 in 10.0 mi SW 8.1 mph - N/A   Clear
4:15 AM -4.4 °F -15.0 °F -13.0 °F 66% 30.37 in 10.0 mi SW 4.6 mph - N/A   Scattered Clouds
4:35 AM -4.4 °F -15.0 °F -13.0 °F 66% 30.36 in 10.0 mi SW 4.6 mph - N/A   Scattered Clouds
4:55 AM -6.0 °F -14.7 °F -13.7 °F 69% 30.37 in 10.0 mi SW 3.5 mph - N/A   Clear
5:15 AM -6.5 °F -17.5 °F -13.9 °F 70% 30.36 in 10.0 mi SSW 4.6 mph - N/A   Clear
5:35 AM -5.8 °F -16.7 °F -13.2 °F 70% 30.37 in 10.0 mi SSW 4.6 mph - N/A   Clear
5:55 AM -6.7 °F - -14.3 °F 70% 30.36 in 10.0 mi Calm Calm - N/A   Clear
6:15 AM -7.4 °F -16.3 °F -14.4 °F 71% 30.37 in 10.0 mi South 3.5 mph - N/A   Clear
6:35 AM -8.7 °F -20.0 °F -14.8 °F 75% 30.37 in 10.0 mi South 4.6 mph - N/A   Scattered Clouds
6:55 AM -7.8 °F -16.7 °F -14.4 °F 73% 30.37 in 10.0 mi South 3.5 mph - N/A   Clear
7:15 AM -6.7 °F -21.0 °F -13.4 °F 73% 30.36 in 10.0 mi South 6.9 mph - N/A   Scattered Clouds
7:35 AM -5.3 °F -19.3 °F -12.5 °F 71% 30.36 in 10.0 mi South 6.9 mph - N/A   Clear
7:55 AM -3.6 °F -14.1 °F -11.2 °F 70% 30.36 in 10.0 mi SSW 4.6 mph - N/A   Clear
8:15 AM -2.2 °F -14.2 °F -9.9 °F 70% 30.37 in 10.0 mi South 5.8 mph - N/A   Mostly Cloudy
8:35 AM -1.5 °F -14.7 °F -9.2 °F 70% 30.36 in 10.0 mi South 6.9 mph - N/A   Overcast
8:55 AM -0.4 °F -12.0 °F -8.0 °F 70% 30.36 in 10.0 mi South 5.8 mph - N/A   Overcast
9:15 AM 0.3 °F -13.8 °F -7.6 °F 69% 30.36 in 10.0 mi South 8.1 mph - N/A   Overcast
9:35 AM 1.6 °F -11.0 °F -6.3 °F 69% 30.37 in 10.0 mi South 6.9 mph - N/A   Overcast
9:55 AM 3.6 °F -8.7 °F -5.6 °F 66% 30.35 in 10.0 mi South 6.9 mph - N/A   Overcast
10:15 AM 5.0 °F -6.9 °F -4.9 °F 64% 30.34 in 10.0 mi South 6.9 mph - N/A   Overcast
10:35 AM 6.3 °F -5.4 °F -4.4 °F 62% 30.33 in 10.0 mi SSE 6.9 mph - N/A   Overcast
10:55 AM 7.2 °F -4.3 °F -3.1 °F 63% 30.32 in 10.0 mi SSE 6.9 mph - N/A   Overcast
11:15 AM 8.6 °F -2.6 °F -2.6 °F 61% 30.30 in 10.0 mi SSE 6.9 mph - N/A   Overcast
11:35 AM 10.4 °F -0.4 °F -2.0 °F 57% 30.28 in 10.0 mi SSE 6.9 mph - N/A   Overcast
11:55 AM 11.8 °F -2.3 °F -1.5 °F 55% 30.23 in 10.0 mi SSE 11.5 mph - N/A   Mostly Cloudy
12:15 PM 11.8 °F -1.5 °F -0.6 °F 58% 30.21 in 10.0 mi ESE 10.4 mph - N/A   Mostly Cloudy
12:35 PM 12.0 °F -2.7 °F -0.4 °F 58% 30.19 in 10.0 mi SE 12.7 mph - N/A   Mostly Cloudy
12:55 PM 12.9 °F -0.2 °F -0.4 °F 55% 30.16 in 10.0 mi SE 10.4 mph 17.3 mph N/A   Overcast
1:15 PM 14.4 °F 0.9 °F 0.1 °F 53% 30.18 in 10.0 mi SSE 11.5 mph - N/A   Mostly Cloudy
1:35 PM 16.0 °F 2.9 °F 1.4 °F 53% 30.18 in 10.0 mi SSE 11.5 mph 18.4 mph N/A   Mostly Cloudy
1:55 PM 17.2 °F 7.8 °F 2.8 °F 53% 30.18 in 10.0 mi SSE 6.9 mph - N/A   Overcast
2:15 PM 18.3 °F 10.2 °F 3.0 °F 51% 30.19 in 10.0 mi South 5.8 mph - N/A   Mostly Cloudy
2:35 PM 18.9 °F 10.8 °F 4.6 °F 54% 30.18 in 10.0 mi SE 5.8 mph - N/A   Mostly Cloudy
2:55 PM 19.0 °F 10.0 °F 3.2 °F 50% 30.19 in 10.0 mi South 6.9 mph - N/A   Mostly Cloudy
3:15 PM 19.4 °F 12.8 °F 3.7 °F 51% 30.20 in 10.0 mi SE 4.6 mph - N/A   Clear
3:35 PM 19.2 °F 14.1 °F 5.0 °F 54% 30.19 in 10.0 mi SE 3.5 mph - N/A   Clear
3:55 PM 19.2 °F 11.3 °F 5.0 °F 54% 30.18 in 10.0 mi SSE 5.8 mph - N/A   Clear
4:15 PM 17.6 °F 8.2 °F 4.6 °F 57% 30.19 in 10.0 mi ESE 6.9 mph - N/A   Clear
4:35 PM 16.7 °F 8.3 °F 4.5 °F 59% 30.19 in 10.0 mi SE 5.8 mph - N/A   Clear
4:55 PM 15.4 °F 5.6 °F 4.1 °F 61% 30.19 in 10.0 mi SE 6.9 mph - N/A   Clear
5:15 PM 14.9 °F 5.0 °F 4.1 °F 62% 30.20 in 10.0 mi ESE 6.9 mph - N/A   Clear
5:35 PM 13.6 °F 3.5 °F 4.1 °F 66% 30.20 in 10.0 mi ESE 6.9 mph - N/A   Clear
5:55 PM 12.7 °F 2.4 °F 3.6 °F 67% 30.21 in 10.0 mi ESE 6.9 mph - N/A   Clear
6:15 PM 12.7 °F 2.4 °F 3.6 °F 67% 30.20 in 10.0 mi ESE 6.9 mph - N/A   Clear
6:35 PM 12.4 °F 4.6 °F 3.2 °F 67% 30.21 in 10.0 mi SE 4.6 mph - N/A   Clear
6:55 PM 13.5 °F 5.8 °F 3.7 °F 65% 30.22 in 10.0 mi ESE 4.6 mph - N/A   Clear
7:15 PM 12.2 °F - 3.0 °F 67% 30.22 in 10.0 mi Calm Calm - N/A   Clear
7:35 PM 11.8 °F - 3.0 °F 68% 30.22 in 10.0 mi Calm Calm - N/A   Clear
7:55 PM 12.2 °F 6.1 °F 3.4 °F 68% 30.22 in 10.0 mi ENE 3.5 mph - N/A   Clear
8:15 PM 10.4 °F 4.0 °F 2.7 °F 71% 30.22 in 10.0 mi ENE 3.5 mph - N/A   Clear
8:35 PM 11.7 °F - 3.7 °F 71% 30.23 in 10.0 mi Calm Calm - N/A   Clear
8:55 PM 9.5 °F - 2.8 °F 74% 30.22 in 10.0 mi Calm Calm - N/A   Clear
9:15 PM 10.4 °F - 3.6 °F 74% 30.23 in 10.0 mi Calm Calm - N/A   Clear
9:35 PM 9.9 °F - 3.4 °F 75% 30.23 in 10.0 mi Calm Calm - N/A   Clear
9:55 PM 8.6 °F - 2.3 °F 76% 30.23 in 10.0 mi Calm Calm - N/A   Clear
10:15 PM 7.0 °F - 1.4 °F 78% 30.23 in 10.0 mi Calm Calm - N/A   Clear
10:35 PM 6.4 °F - 1.2 °F 79% 30.23 in 10.0 mi Calm Calm - N/A   Clear
10:55 PM 5.5 °F -1.5 °F 0.1 °F 78% 30.23 in 10.0 mi NNW 3.5 mph - N/A   Clear
11:15 PM 5.0 °F - 0.1 °F 80% 30.24 in 10.0 mi Calm Calm - N/A   Clear
11:35 PM 5.0 °F -2.1 °F 0.1 °F 80% 30.24 in 10.0 mi NW 3.5 mph - N/A   Clear
11:55 PM 5.2 °F -3.8 °F 0.3 °F 80% 30.24 in 10.0 mi NW 4.6 mph - N/A   Clear